Temperature
16 15 15 16 17 17 18 18 18 20 20 19 18 18 19 21 21 21 22 22 22 22 22 21 21 20 19 19 18 17 17 16 15 15 14 13 13 13 13 12 12 12 12 12
15 15 16 17 17 17 17 17 17 19 20 19 18 18 19 20 20 21 22 22 22 22 22 21 21 20 19 19 18 18 17 16 16 15 15 14 14 13 13 13 12 12 12 12
14 16 17 17 17 17 17 16 17 18 18 18 18 17 19 20 21 22 22 22 22 22 22 21 20 20 19 19 18 18 17 16 16 15 14 14 13 13 12 12 12 12 12 12
15 16 16 16 16 17 16 17 17 17 16 16 18 16 18 20 20 20 21 21 22 21 21 21 20 20 19 19 18 18 17 16 16 15 15 14 14 14 14 14 13 13 12 12
14 15 15 15 16 17 17 17 17 16 16 15 16 16 17 20 19 20 20 22 22 21 21 20 20 20 19 19 18 18 17 17 16 15 15 15 14 14 14 13 13 12 12 12
14 15 16 16 16 17 17 17 16 16 15 14 16 16 16 19 20 20 20 22 22 21 20 20 20 19 19 19 18 18 17 17 16 16 15 15 15 14 14 13 13 12 12 12
13 14 15 15 15 15 15 14 13 13 13 14 17 16 17 20 21 21 20 21 21 21 20 19 19 19 19 19 18 18 17 17 16 16 15 15 15 14 14 14 13 13 12 12
12 13 14 14 14 14 14 14 13 13 14 15 16 16 18 20 20 21 21 21 21 20 20 19 19 19 19 19 19 18 17 17 16 16 16 15 15 14 14 14 14 13 13 13
13 13 15 15 15 15 14 14 15 14 14 14 16 17 19 19 19 19 19 20 20 20 20 19 19 19 19 19 19 18 18 17 16 16 16 15 15 14 14 14 13 13 13 12
13 13 14 14 14 14 14 14 13 12 12 13 15 16 17 18 18 18 18 18 19 19 19 19 19 19 19 19 18 18 18 17 17 16 16 15 15 15 14 14 13 13 13 12
12 12 12 13 13 13 13 13 13 13 13 13 14 16 19 19 19 18 18 19 19 19 19 19 19 19 19 18 18 18 17 17 16 16 15 15 15 14 14 14 13 13 13 12
11 11 11 12 13 14 13 13 13 12 12 13 13 15 19 18 18 18 18 19 19 19 18 18 18 18 18 18 18 17 17 17 16 16 15 15 15 14 14 14 13 13 13 12
11 10 9 10 11 12 12 13 13 13 13 13 13 15 18 18 18 18 18 18 18 18 18 18 17 17 17 17 17 17 17 17 16 16 15 15 15 14 14 14 13 13 12 12
11 9 9 10 11 11 11 12 12 12 12 12 13 15 16 17 17 17 17 18 18 17 17 17 17 17 17 17 17 17 17 16 16 16 15 15 15 14 14 13 13 13 12 12
9 9 9 10 12 12 11 11 11 12 12 12 13 14 16 17 17 17 17 17 17 17 17 17 16 16 16 16 16 16 16 16 16 15 15 15 15 14 14 13 13 12 12 11
8 8 9 9 11 11 11 11 11 12 12 12 13 14 16 17 17 17 17 17 17 17 17 16 16 16 16 16 16 16 16 16 16 15 15 15 14 14 13 13 13 12 12 11
7 7 8 8 10 10 10 11 11 12 12 13 13 14 15 15 16 16 17 17 17 17 16 16 16 16 16 16 16 16 16 16 16 15 15 14 14 13 13 12 12 12 11 11
7 7 7 7 8 8 10 13 13 12 13 13 14 14 14 15 16 17 17 17 16 16 16 16 16 15 15 15 15 16 15 15 15 15 15 14 14 13 13 12 12 11 11 10
8 7 7 6 7 8 11 12 12 12 12 13 13 14 14 15 15 15 16 16 16 16 16 15 15 15 15 15 15 15 15 15 14 14 14 14 13 13 12 12 11 11 10 10
8 8 7 6 6 7 11 12 13 12 11 12 13 13 13 13 12 13 15 15 15 15 15 15 15 15 14 15 14 14 14 14 14 14 14 13 13 12 12 11 11 10 10 9
6 6 6 6 6 8 11 12 12 10 11 12 13 13 13 12 12 13 14 14 14 14 14 14 14 14 14 14 14 14 14 13 13 13 13 12 12 12 11 10 10 9 9 8
7 6 6 6 6 7 10 10 10 11 12 12 12 12 12 12 13 13 13 13 13 13 14 14 14 13 13 13 13 13 13 13 12 12 12 12 11 11 10 10 9 9 8 7
8 8 7 7 8 9 11 11 11 11 11 11 11 11 11 11 12 12 12 12 12 12 12 13 13 13 12 12 12 12 12 12 12 11 11 11 10 10 9 9 9 8 7 6
8 8 8 8 8 9 11 11 11 11 11 11 10 10 10 10 10 11 11 11 11 11 11 11 12 12 12 12 11 11 11 11 11 10 10 10 10 9 9 8 8 7 7 6
8 7 7 7 8 9 10 10 10 10 10 10 10 10 10 10 10 10 10 10 10 10 10 10 10 10 11 11 10 10 10 10 10 9 9 9 9 8 8 7 7 6 6 5
7 7 7 7 9 8 9 10 10 9 9 9 9 9 9 9 9 9 9 9 9 9 10 10 9 10 10 10 10 10 9 9 9 9 9 8 8 7 7 6 5 5 4 4
Wind_Speed
8 9 13 13 14 13 11 11 11 10 5 8 13 15 14 13 12 12 12 11 11 11 10 10 12 12 12 12 12 14 14 14 12 10 10 9 8 7 7 6 11 13 14 14
9 16 15 11 11 13 15 15 14 10 5 6 11 15 15 14 14 12 12 12 11 10 9 9 10 11 12 13 13 14 15 14 13 11 10 8 8 7 7 6 8 12 13 14
18 10 10 14 14 14 15 14 13 11 8 8 9 12 14 12 13 12 11 10 9 9 10 11 11 11 10 12 13 13 14 14 13 11 8 7 6 5 6 8 8 9 12 13
14 14 12 13 15 14 14 10 11 11 8 7 6 8 9 8 10 11 12 12 11 10 9 9 11 11 11 11 11 12 13 13 13 13 11 11 10 9 9 8 8 8 11 11
9 10 13 16 15 13 9 6 9 10 10 10 10 9 8 9 11 12 12 12 11 11 10 10 10 11 10 10 10 10 11 13 13 13 13 13 11 9 7 7 9 10 9 10
13 9 9 11 10 9 6 5 6 6 6 10 13 11 8 8 10 10 11 11 10 11 10 9 9 9 9 9 9 10 11 12 13 14 14 14 13 11 10 10 10 9 7 8
11 13 10 5 7 8 7 5 4 6 8 9 9 10 9 7 6 6 8 9 10 10 10 10 10 10 10 11 11 11 11 12 13 14 14 14 14 13 12 11 11 10 8 8
10 10 13 9 10 8 11 10 8 6 6 5 7 10 8 6 5 4 4 6 8 10 10 10 11 11 11 12 12 12 12 12 13 14 14 13 13 10 9 10 9 10 9 9
8 7 8 10 9 9 9 11 9 6 7 6 7 7 7 5 5 6 7 7 8 9 10 10 10 10 11 12 13 13 13 12 13 14 13 12 12 12 10 9 9 8 7 7
5 7 7 7 6 10 9 6 5 7 6 7 8 10 7 8 9 9 8 8 8 7 8 9 9 10 10 10 11 12 13 13 12 12 12 11 11 11 10 8 9 9 8 8
8 7 5 6 11 13 10 10 7 6 6 5 5 5 4 5 6 7 7 7 7 7 7 8 8 8 9 9 10 10 11 11 11 12 11 11 10 10 9 9 9 8 8 8
6 4 7 9 7 8 11 13 12 9 8 7 7 8 2 2 3 2 2 3 5 6 6 6 6 6 7 8 9 10 11 11 11 11 10 10 10 9 9 9 8 8 8 8
4 4 5 5 6 7 9 11 13 11 8 9 10 9 3 0 1 1 1 2 3 5 5 5 5 6 7 8 9 10 10 10 10 10 10 10 10 10 10 9 8 8 8 8
4 6 9 10 5 5 8 11 13 12 12 14 16 16 10 6 5 5 5 4 4 5 5 5 5 6 6 7 8 9 10 10 10 10 11 11 11 11 10 9 8 8 8 8
4 8 11 14 12 10 12 14 15 18 18 16 16 19 16 11 8 7 6 5 5 5 6 6 6 6 6 7 7 7 8 9 10 11 11 11 10 9 9 8 8 7 7 7
3 6 9 14 14 13 14 15 17 20 20 21 20 22 15 12 10 8 7 6 6 7 7 7 7 7 7 7 8 8 8 9 10 11 10 9 9 10 9 9 8 8 7 7
4 5 6 11 11 10 14 17 17 17 19 19 23 22 12 13 13 11 8 8 8 7 7 7 8 8 8 8 8 9 9 8 10 10 10 10 10 10 9 9 9 8 8 7
8 8 5 6 7 13 11 9 14 18 19 18 17 15 13 13 11 10 9 8 8 7 7 7 7 7 7 6 6 6 7 8 9 9 9 9 9 9 9 9 9 8 7 7
12 10 7 5 9 11 9 9 11 14 16 14 17 16 13 11 10 11 9 8 8 8 6 6 6 6 6 6 6 6 7 7 8 9 9 9 10 10 9 9 9 7 6 6
12 11 8 6 7 9 8 5 6 7 12 10 12 13 11 7 9 11 7 7 7 5 3 3 3 3 4 5 6 7 7 8 9 9 9 9 9 10 10 9 8 6 6 6
8 8 12 12 10 9 7 4 2 7 7 2 5 7 6 7 10 8 5 4 5 5 4 3 3 4 4 5 7 7 7 9 8 7 7 8 8 8 8 7 6 7 6 6
9 8 9 9 10 11 5 2 5 5 3 4 4 4 5 7 8 7 6 5 4 4 4 3 3 4 3 5 7 8 8 7 6 7 7 7 7 7 7 8 7 7 7 6
10 10 7 9 10 7 5 6 6 5 6 6 6 7 7 7 7 6 6 5 5 4 4 3 3 4 3 5 7 7 6 6 7 7 7 7 7 7 7 8 8 7 6 5
7 7 8 9 11 10 10 9 8 7 8 8 7 6 7 8 7 7 6 5 5 4 4 3 3 4 4 4 5 5 6 7 8 8 7 7 7 7 6 6 6 6 6 6
8 6 9 13 13 11 11 10 9 9 8 8 7 7 6 7 8 8 7 7 5 4 3 3 4 4 4 4 4 5 6 7 7 8 7 7 7 7 6 5 4 5 4 6
10 10 11 12 9 8 9 8 8 10 10 9 9 9 7 7 8 8 7 6 5 4 2 3 3 3 3 4 4 5 6 7 8 7 7 6 6 6 6 6 4 4 4 5
Wind_Direction
202 217 221 217 218 238 261 266 265 262 223 226 242 253 256 250 242 237 234 228 223 219 206 192 189 183 179 179 178 176 175 180 180 179 182 186 190 186 184 183 183 184 187 187
221 226 227 227 229 237 251 262 268 275 246 244 258 263 261 249 239 236 233 230 223 215 196 185 183 180 180 179 181 179 179 180 183 183 183 184 182 184 186 183 188 190 190 190
224 229 221 231 232 234 242 245 255 269 283 260 262 270 253 240 231 229 228 226 222 208 196 185 182 181 180 183 183 183 181 180 182 176 172 170 171 176 186 191 195 194 194 194
237 237 230 229 233 232 244 241 251 266 276 271 251 277 267 243 221 220 221 218 214 207 197 183 179 182 185 185 180 179 178 178 179 175 178 179 185 193 198 191 193 194 196 197
234 223 227 231 233 234 242 245 250 252 256 265 259 262 262 235 227 219 216 212 204 194 189 183 178 181 182 177 175 177 175 178 178 180 184 188 195 197 192 188 189 194 198 196
247 247 234 236 236 240 244 247 253 250 254 253 235 235 262 231 225 216 208 200 188 182 180 177 171 168 173 171 170 174 176 180 179 183 188 193 196 194 191 194 194 195 197 197
237 237 231 230 226 221 213 205 224 218 219 239 209 222 245 226 214 213 204 195 184 178 176 176 174 176 177 176 177 181 182 184 184 187 193 197 199 198 199 197 196 194 195 198
217 227 209 206 214 207 204 205 211 220 227 240 206 226 241 210 187 206 210 190 184 182 184 184 184 182 181 181 180 183 187 189 188 191 197 199 199 199 202 200 195 195 197 197
219 227 193 201 210 209 203 216 231 270 291 278 244 242 235 196 202 211 218 206 199 194 189 185 183 182 182 183 185 186 188 191 191 193 195 199 199 198 200 197 193 193 192 187
246 251 212 196 203 220 217 208 199 215 232 245 251 242 235 204 214 213 213 212 207 199 192 186 185 185 184 184 186 186 189 192 191 191 193 197 199 197 194 192 192 189 187 183
242 247 223 192 202 204 201 211 208 209 231 237 254 247 231 203 198 197 203 205 202 199 196 193 191 187 181 180 181 185 189 190 191 191 191 192 194 192 190 192 192 186 184 183
224 241 239 234 232 216 210 211 206 211 224 231 253 261 314 32 68 129 183 205 204 199 196 192 188 182 180 182 188 190 190 190 190 187 186 188 187 186 189 192 189 182 182 183
195 217 229 234 228 222 225 223 224 231 241 239 241 252 234 267 355 312 248 242 214 202 195 191 187 187 190 193 193 193 191 188 184 180 181 182 184 186 190 190 185 180 179 181
201 219 224 227 230 211 231 234 230 229 234 239 240 254 264 255 241 244 242 239 223 207 203 201 200 203 203 202 199 195 191 184 179 179 180 183 186 186 187 185 181 178 177 177
211 237 244 256 262 252 244 243 234 231 234 239 244 249 255 260 257 251 239 235 231 223 217 213 211 212 210 207 201 195 191 182 177 177 183 186 181 178 177 179 176 171 170 174
223 250 251 257 258 256 255 246 240 239 239 244 253 257 258 269 275 272 259 242 240 233 223 220 218 215 213 210 204 196 191 181 173 177 183 179 174 174 176 177 172 170 173 175
206 234 245 252 254 261 250 236 236 238 237 237 246 253 262 266 266 265 262 253 245 242 237 229 224 220 217 213 205 198 189 177 173 177 178 176 174 173 174 172 170 174 179 177
220 229 247 263 249 243 243 223 228 239 244 238 244 252 251 254 260 257 251 247 245 239 235 230 226 224 219 209 201 187 175 171 175 177 176 173 170 171 168 170 175 178 177 178
220 219 226 239 249 260 260 236 227 233 246 241 246 254 257 259 269 264 261 264 257 245 234 226 222 220 211 199 185 170 170 169 173 177 177 174 171 170 171 177 180 178 174 178
215 217 223 224 240 244 249 236 223 226 254 248 242 251 258 250 251 259 267 271 268 267 245 223 219 214 205 191 166 166 175 175 183 183 178 171 169 171 176 178 175 169 168 172
198 212 223 232 242 260 266 264 189 212 246 270 237 246 251 243 246 269 280 276 273 268 255 230 216 207 203 177 162 172 179 189 188 171 161 161 164 167 168 164 161 157 156 156
206 206 214 219 234 249 249 224 212 243 294 322 324 306 281 269 268 273 275 272 276 274 258 234 221 219 204 174 170 181 193 186 160 154 156 159 159 158 159 156 155 152 153 156
218 215 216 216 230 250 238 237 257 284 296 301 307 309 304 290 285 286 281 276 272 263 259 241 223 218 209 182 177 189 188 159 152 153 159 158 153 154 157 158 157 154 155 161
242 230 237 248 249 252 259 261 263 261 269 282 287 297 310 300 296 293 286 282 279 275 255 238 227 212 207 189 183 182 164 155 156 161 161 156 154 154 152 152 157 162 168 169
240 232 244 254 262 274 264 258 264 275 276 279 280 275 276 283 287 286 282 279 276 270 256 235 224 215 210 183 172 158 155 154 159 161 158 156 156 154 147 143 153 163 176 176
240 239 242 252 256 256 265 269 271 274 275 278 282 280 275 269 275 281 279 277 270 258 249 240 226 210 206 185 175 160 155 157 160 161 160 159 156 151 146 139 110 89 136 146
Height
1470 1472 1470 1467 1468 1468 1466 1467 1466 1459 1456 1459 1460 1458 1453 1451 1451 1450 1450 1451 1453 1454 1456 1458 1461 1464 1467 1470 1474 1476 1479 1483 1487 1490 1492 1496 1498 1501 1504 1506 1509 1511 1513 1515
1468 1466 1461 1462 1464 1465 1467 1468 1466 1459 1454 1457 1458 1453 1446 1444 1443 1443 1443 1445 1446 1448 1450 1452 1455 1458 1461 1464 1468 1471 1474 1477 1481 1484 1487 1490 1494 1497 1499 1502 1504 1506 1508 1510
1462 1457 1458 1460 1461 1463 1464 1466 1464 1462 1457 1454 1457 1454 1442 1434 1434 1436 1437 1438 1440 1442 1445 1447 1449 1452 1455 1458 1462 1466 1468 1472 1476 1479 1483 1487 1490 1493 1495 1497 1499 1501 1503 1505
1456 1454 1455 1456 1457 1458 1462 1458 1459 1461 1465 1464 1457 1463 1442 1432 1431 1430 1431 1432 1434 1437 1439 1442 1444 1447 1450 1453 1457 1461 1464 1467 1470 1474 1477 1480 1482 1484 1487 1490 1493 1496 1498 1500
1452 1450 1452 1453 1452 1453 1455 1455 1457 1459 1463 1466 1458 1462 1443 1428 1429 1426 1425 1426 1428 1431 1434 1437 1439 1442 1445 1448 1452 1456 1459 1462 1465 1468 1471 1474 1477 1480 1483 1486 1488 1490 1492 1494
1448 1447 1447 1447 1449 1451 1452 1455 1457 1458 1463 1469 1454 1458 1444 1428 1421 1419 1419 1420 1423 1426 1430 1432 1435 1438 1441 1444 1447 1451 1454 1457 1460 1463 1466 1469 1471 1474 1477 1480 1482 1484 1487 1489
1448 1445 1444 1445 1448 1450 1453 1461 1470 1470 1471 1461 1441 1445 1434 1416 1411 1411 1413 1415 1418 1421 1425 1427 1430 1433 1436 1439 1442 1445 1449 1452 1455 1458 1461 1463 1466 1469 1471 1474 1476 1478 1480 1482
1447 1445 1440 1441 1443 1447 1450 1454 1464 1467 1460 1446 1437 1437 1421 1408 1407 1408 1410 1412 1415 1417 1420 1423 1425 1428 1431 1434 1437 1440 1443 1447 1450 1453 1455 1458 1461 1464 1466 1468 1470 1472 1474 1476
1440 1438 1432 1434 1437 1442 1447 1449 1447 1454 1451 1451 1436 1421 1409 1405 1406 1407 1408 1409 1411 1414 1416 1419 1422 1424 1427 1430 1432 1435 1438 1442 1445 1447 1450 1453 1456 1458 1460 1463 1465 1467 1469 1471
1435 1438 1431 1432 1435 1436 1439 1442 1449 1457 1459 1454 1435 1424 1418 1408 1406 1405 1406 1406 1408 1411 1413 1415 1418 1420 1423 1425 1428 1431 1433 1436 1439 1442 1445 1447 1450 1452 1455 1457 1460 1461 1464 1466
1433 1438 1434 1433 1433 1434 1439 1441 1442 1446 1446 1447 1442 1425 1400 1400 1399 1400 1402 1403 1405 1407 1409 1411 1414 1416 1419 1421 1423 1426 1428 1431 1434 1437 1439 1442 1444 1447 1449 1451 1454 1456 1458 1460
1433 1436 1436 1431 1426 1426 1429 1431 1435 1444 1443 1436 1436 1422 1396 1396 1396 1397 1399 1400 1402 1404 1406 1408 1410 1412 1414 1416 1418 1421 1423 1425 1428 1431 1434 1436 1439 1441 1443 1446 1448 1450 1452 1454
1432 1437 1439 1436 1433 1429 1427 1426 1428 1431 1433 1433 1434 1420 1397 1397 1397 1397 1398 1399 1400 1401 1403 1405 1406 1408 1409 1411 1413 1415 1418 1420 1422 1425 1428 1431 1433 1435 1438 1440 1442 1445 1447 1449
1429 1432 1434 1432 1425 1425 1427 1425 1425 1429 1431 1428 1422 1411 1401 1398 1398 1397 1397 1398 1398 1399 1400 1401 1402 1404 1405 1406 1408 1410 1412 1414 1417 1420 1422 1424 1427 1429 1432 1434 1437 1439 1441 1443
1428 1429 1425 1421 1417 1417 1420 1420 1420 1421 1420 1420 1410 1405 1399 1396 1395 1394 1394 1395 1395 1396 1397 1398 1398 1399 1401 1402 1403 1404 1406 1409 1411 1414 1416 1418 1421 1424 1427 1429 1431 1433 1435 1437
1427 1427 1424 1421 1415 1413 1413 1411 1412 1412 1411 1408 1404 1397 1392 1392 1392 1391 1391 1392 1392 1392 1393 1393 1394 1395 1396 1397 1398 1399 1401 1403 1406 1408 1410 1413 1416 1418 1420 1423 1425 1427 1429 1432
1425 1427 1425 1420 1412 1411 1411 1402 1402 1401 1398 1399 1398 1390 1389 1390 1388 1387 1387 1387 1387 1387 1388 1388 1389 1390 1391 1391 1392 1393 1395 1398 1400 1402 1405 1408 1410 1412 1414 1417 1419 1421 1423 1426
1419 1422 1424 1419 1416 1417 1397 1387 1388 1389 1386 1387 1385 1382 1383 1383 1382 1382 1383 1383 1382 1382 1383 1384 1384 1385 1386 1387 1388 1389 1390 1392 1394 1396 1399 1401 1404 1407 1409 1411 1413 1416 1418 1420
1411 1416 1419 1419 1413 1401 1387 1382 1382 1384 1381 1379 1378 1376 1376 1377 1377 1376 1377 1377 1377 1377 1378 1378 1379 1379 1380 1381 1382 1384 1385 1386 1388 1390 1393 1395 1398 1401 1403 1405 1408 1410 1412 1414
1404 1408 1413 1413 1410 1400 1381 1374 1373 1378 1378 1371 1371 1370 1371 1373 1377 1371 1371 1372 1372 1371 1372 1373 1373 1374 1375 1376 1377 1378 1379 1381 1382 1385 1387 1390 1393 1395 1397 1400 1402 1405 1407 1408
1402 1406 1408 1406 1403 1390 1375 1371 1371 1382 1375 1367 1366 1365 1366 1368 1368 1366 1367 1366 1366 1366 1367 1368 1368 1369 1369 1370 1371 1372 1373 1375 1377 1380 1382 1385 1388 1390 1392 1395 1397 1399 1401 1403
1394 1397 1398 1398 1398 1388 1371 1370 1372 1369 1366 1365 1363 1363 1363 1362 1362 1361 1361 1361 1361 1362 1362 1363 1363 1363 1364 1364 1365 1366 1367 1369 1372 1375 1377 1379 1382 1385 1387 1389 1391 1393 1396 1397
1382 1382 1382 1382 1378 1368 1366 1366 1364 1364 1364 1363 1362 1361 1361 1359 1358 1357 1357 1357 1357 1357 1357 1357 1358 1358 1358 1359 1360 1361 1362 1364 1367 1369 1372 1374 1377 1379 1382 1384 1385 1388 1390 1392
1374 1372 1373 1371 1365 1363 1362 1361 1361 1361 1361 1360 1359 1358 1357 1356 1354 1353 1353 1352 1352 1351 1352 1352 1352 1352 1352 1353 1355 1356 1358 1360 1362 1364 1366 1369 1371 1374 1376 1378 1381 1382 1384 1386
1367 1368 1367 1364 1360 1359 1357 1357 1357 1357 1357 1356 1355 1355 1354 1352 1350 1350 1349 1348 1347 1346 1346 1346 1346 1347 1347 1348 1349 1351 1353 1355 1357 1359 1361 1363 1366 1368 1370 1373 1375 1377 1379 1381
1362 1362 1362 1358 1356 1356 1353 1353 1353 1352 1351 1351 1351 1349 1348 1348 1346 1345 1344 1343 1342 1341 1341 1340 1340 1341 1342 1343 1344 1346 1348 1350 1352 1354 1356 1358 1360 1363 1365 1367 1370 1372 1375 1376